| time (UTC) | temp C | wind direction | speed KPH | gust KPH | rain 1hr cm | rain 24hr cm | rain mn cm | humidity % | barometer mb |
| 20260505041327 | 12 | 172 | 0.0 | 1.6 | 0.10 | 0.00 | 0.10 | 97 | 1010.2 |
| 20260505040859 | 12 | 160 | 0.0 | 1.6 | 0.03 | 0.00 | 0.03 | 96 | 1010.9 |
| 20260505040307 | 12 | 162 | 0.0 | 1.6 | 0.00 | 0.00 | 0.00 | 96 | 1010.8 |
| 20260505034740 | 12 | 177 | 0.0 | 1.6 | 0.00 | 0.00 | 0.00 | 94 | 1010.2 |
| 20260505034306 | 12 | 176 | 0.0 | 0.0 | 0.00 | 0.00 | 0.00 | 94 | 1010.2 |
| 20260505033717 | 12 | 176 | 1.6 | 3.2 | 0.00 | 0.00 | 0.00 | 93 | 1010.1 |
| 20260505033246 | 12 | 176 | 0.0 | 1.6 | 0.00 | 0.00 | 0.00 | 93 | 1010.2 |
| 20260505032658 | 13 | 176 | 0.0 | 0.0 | 0.00 | 0.00 | 0.00 | 92 | 1010.4 |
| 20260505031715 | 13 | 179 | 0.0 | 1.6 | 0.00 | 0.00 | 0.00 | 91 | 1010.6 |
| 20260505031205 | 13 | 175 | 0.0 | 0.0 | 0.00 | 0.00 | 0.00 | 90 | 1010.5 |
| 20260505030149 | 13 | 177 | 0.0 | 0.0 | 0.00 | 0.00 | 0.00 | 88 | 1010.8 |
| 20260505025047 | 13 | 173 | 0.0 | 1.6 | 0.00 | 0.00 | 0.00 | 87 | 1010.6 |
| 20260505023446 | 13 | 170 | 0.0 | 0.0 | 0.00 | 0.00 | 0.00 | 86 | 1011.0 |
| 20260505023014 | 13 | 175 | 0.0 | 0.0 | 0.00 | 0.00 | 0.00 | 86 | 1010.9 |
| 20260505014826 | 13 | 191 | 0.0 | 1.6 | 0.00 | 0.00 | 0.00 | 85 | 1011.0 |
| 20260505013725 | 13 | 133 | 1.6 | 1.6 | 0.00 | 0.00 | 0.00 | 85 | 1011.4 |
| 20260505012705 | 13 | 136 | 1.6 | 3.2 | 0.00 | 0.00 | 0.00 | 85 | 1011.3 |
| 20260505012233 | 13 | 91 | 1.6 | 3.2 | 0.00 | 0.00 | 0.00 | 85 | 1011.2 |
| 20260505011135 | 13 | 183 | 0.0 | 0.0 | 0.00 | 0.00 | 0.00 | 85 | 1010.8 |
| 20260505010115 | 13 | 189 | 0.0 | 0.0 | 0.00 | 0.00 | 0.00 | 85 | 1010.9 |
| 20260505005605 | 13 | 198 | 0.0 | 0.0 | 0.00 | 0.00 | 0.00 | 84 | 1010.9 |
| 20260505004548 | 13 | 179 | 1.6 | 1.6 | 0.00 | 0.00 | 0.00 | 84 | 1011.1 |
| 20260505004035 | 13 | 192 | 0.0 | 0.0 | 0.00 | 0.00 | 0.00 | 84 | 1011.3 |
| 20260505003603 | 13 | 229 | 0.0 | 0.0 | 0.00 | 0.00 | 0.00 | 84 | 1011.2 |
| 20260505003015 | 13 | 235 | 0.0 | 0.0 | 0.00 | 0.00 | 0.00 | 84 | 1011.2 |
| 20260505002505 | 13 | 236 | 0.0 | 0.0 | 0.00 | 0.00 | 0.00 | 84 | 1011.3 |
| 20260505002036 | 13 | 226 | 0.0 | 0.0 | 0.00 | 0.00 | 0.00 | 84 | 1011.3 |
| 20260505000938 | 13 | 230 | 0.0 | 0.0 | 0.00 | 0.00 | 0.00 | 84 | 1011.5 |
| 20260505000428 | 13 | 230 | 0.0 | 0.0 | 0.00 | 0.00 | 0.00 | 84 | 1011.3 |
| 20260504235915 | 13 | 214 | 0.0 | 0.0 | 0.00 | 0.00 | 0.00 | 84 | 1011.6 |
| 20260504235405 | 13 | 212 | 0.0 | 0.0 | 0.00 | 0.00 | 0.00 | 84 | 1011.6 |
| 20260504234345 | 13 | 208 | 0.0 | 0.0 | 0.00 | 0.00 | 0.00 | 84 | 1011.4 |
| 20260504232815 | 13 | 214 | 0.0 | 0.0 | 0.00 | 0.00 | 0.00 | 84 | 1011.4 |
| 20260504232305 | 13 | 213 | 0.0 | 0.0 | 0.00 | 0.00 | 0.00 | 85 | 1011.3 |
| 20260504224655 | 13 | 214 | 0.0 | 0.0 | 0.00 | 0.00 | 0.00 | 86 | 1011.8 |
| 20260504224145 | 13 | 214 | 0.0 | 0.0 | 0.00 | 0.00 | 0.00 | 86 | 1011.9 |
| 20260504223125 | 13 | 214 | 0.0 | 0.0 | 0.00 | 0.00 | 0.00 | 86 | 1011.8 |
| 20260504222105 | 13 | 214 | 0.0 | 0.0 | 0.00 | 0.00 | 0.00 | 85 | 1012.2 |
| 20260504221558 | 13 | 215 | 0.0 | 0.0 | 0.00 | 0.00 | 0.00 | 85 | 1012.1 |
| 20260504221045 | 13 | 213 | 0.0 | 0.0 | 0.00 | 0.00 | 0.00 | 84 | 1012.0 |
| 20260504220700 | 13 | 212 | 0.0 | 0.0 | 0.00 | 0.00 | 0.00 | 84 | 1011.9 |
| 20260504215553 | 13 | 220 | 0.0 | 0.0 | 0.00 | 0.00 | 0.00 | 83 | 1011.9 |
| 20260504215043 | 14 | 220 | 0.0 | 0.0 | 0.00 | 0.00 | 0.00 | 83 | 1012.1 |
| 20260504214455 | 14 | 220 | 0.0 | 0.0 | 0.00 | 0.00 | 0.00 | 82 | 1012.1 |
| 20260504212457 | 15 | 204 | 0.0 | 0.0 | 0.00 | 0.00 | 0.00 | 79 | 1012.1 |
| 20260504211905 | 15 | 204 | 0.0 | 0.0 | 0.00 | 0.00 | 0.00 | 79 | 1012.2 |
| 20260504211433 | 15 | 218 | 0.0 | 0.0 | 0.00 | 0.00 | 0.00 | 78 | 1012.2 |
| 20260504210923 | 15 | 218 | 0.0 | 1.6 | 0.00 | 0.00 | 0.00 | 78 | 1012.3 |
| 20260504210334 | 15 | 218 | 0.0 | 1.6 | 0.00 | 0.00 | 0.00 | 77 | 1012.4 |
| 20260504204805 | 16 | 218 | 0.0 | 0.0 | 0.00 | 0.00 | 0.00 | 76 | 1012.2 |
| 20260504203234 | 16 | 224 | 0.0 | 0.0 | 0.00 | 0.00 | 0.00 | 75 | 1012.3 |
| 20260504202252 | 16 | 207 | 0.0 | 0.0 | 0.00 | 0.00 | 0.00 | 74 | 1012.2 |
| 20260504201317 | 16 | 217 | 0.0 | 0.0 | 0.00 | 0.00 | 0.00 | 74 | 1012.1 |
| 20260504195627 | 16 | 215 | 0.0 | 0.0 | 0.00 | 0.00 | 0.00 | 73 | 1011.8 |
| 20260504195114 | 16 | 215 | 0.0 | 0.0 | 0.00 | 0.00 | 0.00 | 73 | 1012.1 |
| 20260504194604 | 17 | 215 | 0.0 | 0.0 | 0.00 | 0.00 | 0.00 | 72 | 1011.9 |
| 20260504194133 | 17 | 201 | 0.0 | 0.0 | 0.00 | 0.00 | 0.00 | 72 | 1012.1 |
| 20260504193034 | 17 | 216 | 0.0 | 0.0 | 0.00 | 0.00 | 0.00 | 71 | 1012.3 |
| 20260504192524 | 17 | 202 | 0.0 | 0.0 | 0.00 | 0.00 | 0.00 | 71 | 1012.0 |
| 20260504190957 | 18 | 202 | 0.0 | 0.0 | 0.00 | 0.00 | 0.00 | 70 | 1011.9 |
| 20260504190444 | 18 | 202 | 0.0 | 0.0 | 0.00 | 0.00 | 0.00 | 69 | 1012.0 |
| 20260504184404 | 18 | 202 | 0.0 | 0.0 | 0.00 | 0.00 | 0.00 | 67 | 1011.8 |
| 20260504183854 | 18 | 202 | 0.0 | 0.0 | 0.00 | 0.00 | 0.00 | 68 | 1012.2 |
| 20260504182834 | 19 | 202 | 0.0 | 0.0 | 0.00 | 0.00 | 0.00 | 67 | 1011.8 |
| 20260504182324 | 19 | 202 | 0.0 | 0.0 | 0.00 | 0.00 | 0.00 | 67 | 1012.0 |
| 20260504181345 | 19 | 201 | 0.0 | 0.0 | 0.00 | 0.00 | 0.00 | 65 | 1011.9 |
| 20260504180832 | 20 | 202 | 0.0 | 0.0 | 0.00 | 0.00 | 0.00 | 64 | 1011.8 |
| 20260504180244 | 20 | 201 | 0.0 | 0.0 | 0.00 | 0.00 | 0.00 | 63 | 1011.8 |
| 20260504175734 | 20 | 214 | 0.0 | 1.6 | 0.00 | 0.00 | 0.00 | 62 | 1011.7 |
| 20260504175224 | 20 | 170 | 0.0 | 0.0 | 0.00 | 0.00 | 0.00 | 62 | 1011.7 |
| 20260504173222 | 20 | 192 | 0.0 | 3.2 | 0.00 | 0.00 | 0.00 | 59 | 1011.4 |
| 20260504172712 | 20 | 199 | 0.0 | 1.6 | 0.00 | 0.00 | 0.00 | 59 | 1011.6 |
| 20260504171104 | 21 | 164 | 0.0 | 1.6 | 0.00 | 0.00 | 0.00 | 60 | 1011.7 |
| 20260504170717 | 21 | 118 | 1.6 | 3.2 | 0.00 | 0.00 | 0.00 | 60 | 1011.4 |
| 20260504160354 | 22 | 180 | 1.6 | 4.8 | 0.00 | 0.00 | 0.00 | 58 | 1011.6 |
| 20260504150648 | 21 | 194 | 0.0 | 3.2 | 0.00 | 0.00 | 0.00 | 58 | 1011.8 |
| 20260504140511 | 22 | 56 | 1.6 | 3.2 | 0.00 | 0.00 | 0.00 | 53 | 1012.2 |
| 20260504130746 | 22 | 159 | 0.0 | 4.8 | 0.00 | 0.00 | 0.00 | 59 | 1012.4 |
| 20260504130233 | 21 | 191 | 0.0 | 4.8 | 0.00 | 0.00 | 0.00 | 61 | 1012.4 |
| 20260504100143 | 20 | 203 | 1.6 | 4.8 | 0.00 | 0.00 | 0.00 | 64 | 1012.8 |
| 20260504081824 | 20 | 217 | 1.6 | 6.4 | 0.00 | 0.00 | 0.00 | 66 | 1012.8 |
| 20260504050712 | 13 | 165 | 0.0 | 0.0 | 0.00 | 0.00 | 0.00 | 88 | 1011.5 |
| 20260504050202 | 13 | 165 | 0.0 | 0.0 | 0.00 | 0.00 | 0.00 | 88 | 1011.5 |